Time,TemperatureF,DewpointF,PressureIn,WindDirection,WindDirectionDegrees,WindSpeedMPH,WindSpeedGustMPH,Humidity,HourlyPrecipIn,Conditions,Clouds,dailyrainin,SoftwareType,DateUTC
2013-09-08 00:00:00,72.0,66.2,29.93,NE,42,0.0,0.0,82,0.00,,,0.16,Wunderground v.1.15,2013-09-08 04:00:00,
2013-09-08 00:05:00,71.9,66.1,29.93,NE,42,0.0,0.0,82,0.00,,,0.00,Wunderground v.1.15,2013-09-08 04:05:00,
2013-09-08 00:10:00,71.8,66.4,29.93,NE,41,0.0,0.0,83,0.00,,,0.00,Wunderground v.1.15,2013-09-08 04:10:00,
2013-09-08 00:15:00,71.7,65.9,29.93,NE,42,0.0,0.0,82,0.00,,,0.00,Wunderground v.1.15,2013-09-08 04:15:00,
2013-09-08 00:20:00,71.7,65.9,29.93,NE,42,0.0,0.0,82,0.00,,,0.00,Wunderground v.1.15,2013-09-08 04:20:00,
2013-09-08 00:25:00,71.6,66.2,29.93,NE,41,0.0,0.0,83,0.00,,,0.00,Wunderground v.1.15,2013-09-08 04:25:00,
2013-09-08 00:30:00,71.6,66.2,29.93,NE,41,0.0,0.0,83,0.00,,,0.00,Wunderground v.1.15,2013-09-08 04:30:00,
2013-09-08 00:35:00,71.5,66.1,29.93,NE,42,0.0,0.0,83,0.00,,,0.00,Wunderground v.1.15,2013-09-08 04:35:00,
2013-09-08 00:40:00,71.3,65.9,29.93,NE,41,0.0,0.0,83,0.00,,,0.00,Wunderground v.1.15,2013-09-08 04:40:00,
2013-09-08 00:45:00,71.2,65.8,29.93,NE,42,0.0,0.0,83,0.00,,,0.00,Wunderground v.1.15,2013-09-08 04:45:00,
2013-09-08 00:50:00,71.0,65.6,29.93,NE,42,0.0,0.0,83,0.00,,,0.00,Wunderground v.1.15,2013-09-08 04:50:00,
2013-09-08 00:55:00,70.8,65.4,29.93,NE,42,0.0,0.0,83,0.00,,,0.00,Wunderground v.1.15,2013-09-08 04:55:00,
2013-09-08 01:05:00,70.6,65.2,29.92,NE,42,0.0,0.0,83,0.00,,,0.00,Wunderground v.1.15,2013-09-08 05:05:00,
2013-09-08 01:10:00,70.6,65.2,29.92,NE,41,0.0,0.0,83,0.00,,,0.00,Wunderground v.1.15,2013-09-08 05:10:00,
2013-09-08 01:15:00,70.6,65.2,29.92,NE,42,0.0,0.0,83,0.00,,,0.00,Wunderground v.1.15,2013-09-08 05:15:00,
2013-09-08 01:20:00,70.5,65.1,29.92,NE,41,0.0,0.0,83,0.00,,,0.00,Wunderground v.1.15,2013-09-08 05:20:00,
2013-09-08 01:25:00,70.4,64.6,29.92,NE,42,0.0,0.0,82,0.00,,,0.00,Wunderground v.1.15,2013-09-08 05:25:00,
2013-09-08 01:30:00,70.4,64.6,29.92,NE,41,0.0,0.0,82,0.00,,,0.00,Wunderground v.1.15,2013-09-08 05:30:00,
2013-09-08 01:35:00,70.3,64.5,29.92,NE,42,0.0,0.0,82,0.00,,,0.00,Wunderground v.1.15,2013-09-08 05:35:00,
2013-09-08 01:40:00,70.2,64.8,29.92,NE,42,0.0,0.0,83,0.00,,,0.00,Wunderground v.1.15,2013-09-08 05:40:00,
2013-09-08 01:45:00,70.2,64.8,29.92,NE,41,0.0,0.0,83,0.00,,,0.00,Wunderground v.1.15,2013-09-08 05:45:00,
2013-09-08 01:50:00,70.1,64.7,29.92,NE,41,0.0,0.0,83,0.00,,,0.00,Wunderground v.1.15,2013-09-08 05:50:00,
2013-09-08 01:55:00,70.0,64.6,29.92,NE,42,0.0,0.0,83,0.00,,,0.00,Wunderground v.1.15,2013-09-08 05:55:00,
2013-09-08 02:00:00,69.9,64.5,29.92,NE,41,0.0,0.0,83,0.00,,,0.00,Wunderground v.1.15,2013-09-08 06:00:00,
2013-09-08 02:05:00,69.8,64.4,29.92,NE,41,0.0,0.0,83,0.00,,,0.00,Wunderground v.1.15,2013-09-08 06:05:00,
2013-09-08 02:10:00,69.9,64.5,29.92,NE,42,0.0,0.0,83,0.00,,,0.00,Wunderground v.1.15,2013-09-08 06:10:00,
2013-09-08 02:15:00,69.9,64.5,29.92,NE,42,0.0,0.0,83,0.00,,,0.00,Wunderground v.1.15,2013-09-08 06:15:00,
2013-09-08 02:20:00,69.9,64.5,29.92,NE,41,0.0,0.0,83,0.00,,,0.00,Wunderground v.1.15,2013-09-08 06:20:00,
2013-09-08 02:25:00,70.0,64.6,29.92,NE,42,0.0,0.0,83,0.00,,,0.00,Wunderground v.1.15,2013-09-08 06:25:00,
2013-09-08 02:30:00,70.1,64.7,29.92,NE,42,0.0,0.0,83,0.00,,,0.00,Wunderground v.1.15,2013-09-08 06:30:00,
2013-09-08 02:35:00,70.1,64.3,29.92,NE,42,0.0,0.0,82,0.00,,,0.00,Wunderground v.1.15,2013-09-08 06:35:00,
2013-09-08 02:40:00,70.1,64.3,29.91,NE,42,0.0,0.0,82,0.00,,,0.00,Wunderground v.1.15,2013-09-08 06:40:00,
2013-09-08 02:45:00,70.0,64.6,29.91,NE,42,0.0,0.0,83,0.00,,,0.00,Wunderground v.1.15,2013-09-08 06:45:00,
2013-09-08 02:55:00,69.9,64.5,29.91,NE,42,0.0,0.0,83,0.00,,,0.00,Wunderground v.1.15,2013-09-08 06:55:00,
2013-09-08 03:00:00,69.8,64.4,29.91,NE,42,0.0,0.0,83,0.00,,,0.00,Wunderground v.1.15,2013-09-08 07:00:00,
2013-09-08 03:05:00,69.7,64.3,29.91,NE,41,0.0,0.0,83,0.00,,,0.00,Wunderground v.1.15,2013-09-08 07:05:00,
2013-09-08 03:15:00,69.7,64.3,29.91,NE,41,0.0,0.0,83,0.00,,,0.00,Wunderground v.1.15,2013-09-08 07:15:00,
2013-09-08 03:20:00,69.7,64.0,29.91,NE,41,0.0,0.0,82,0.00,,,0.00,Wunderground v.1.15,2013-09-08 07:20:00,
2013-09-08 03:25:00,69.6,63.9,29.91,NE,42,0.0,0.0,82,0.00,,,0.00,Wunderground v.1.15,2013-09-08 07:25:00,
2013-09-08 03:30:00,69.5,63.8,29.90,NE,42,0.0,0.0,82,0.00,,,0.00,Wunderground v.1.15,2013-09-08 07:30:00,
2013-09-08 03:35:00,69.5,63.8,29.90,NE,42,0.0,0.0,82,0.00,,,0.00,Wunderground v.1.15,2013-09-08 07:35:00,
2013-09-08 03:40:00,69.5,63.8,29.90,NE,41,0.0,0.0,82,0.00,,,0.00,Wunderground v.1.15,2013-09-08 07:40:00,
2013-09-08 03:45:00,69.7,64.0,29.90,NE,42,0.0,0.0,82,0.00,,,0.00,Wunderground v.1.15,2013-09-08 07:45:00,
2013-09-08 03:55:00,69.8,64.1,29.89,NE,41,0.0,0.0,82,0.00,,,0.00,Wunderground v.1.15,2013-09-08 07:55:00,
2013-09-08 04:00:00,69.9,64.2,29.89,NE,41,0.0,0.0,82,0.00,,,0.00,Wunderground v.1.15,2013-09-08 08:00:00,
2013-09-08 04:05:00,69.9,64.2,29.89,NE,42,0.0,0.0,82,0.00,,,0.00,Wunderground v.1.15,2013-09-08 08:05:00,
2013-09-08 04:10:00,70.0,64.2,29.89,NE,42,0.0,0.0,82,0.00,,,0.00,Wunderground v.1.15,2013-09-08 08:10:00,
2013-09-08 04:15:00,70.1,64.3,29.89,NE,42,0.0,0.0,82,0.00,,,0.00,Wunderground v.1.15,2013-09-08 08:15:00,
2013-09-08 04:20:00,70.1,64.3,29.89,NE,41,0.0,0.0,82,0.00,,,0.00,Wunderground v.1.15,2013-09-08 08:20:00,
2013-09-08 04:25:00,70.1,64.3,29.89,NE,42,0.0,0.0,82,0.00,,,0.00,Wunderground v.1.15,2013-09-08 08:25:00,
2013-09-08 04:30:00,70.1,64.3,29.89,NE,42,0.0,0.0,82,0.00,,,0.00,Wunderground v.1.15,2013-09-08 08:30:00,
2013-09-08 04:40:00,70.0,64.2,29.89,NE,42,0.0,0.0,82,0.00,,,0.00,Wunderground v.1.15,2013-09-08 08:40:00,
2013-09-08 04:45:00,69.9,64.2,29.89,NE,42,0.0,0.0,82,0.00,,,0.00,Wunderground v.1.15,2013-09-08 08:45:00,
2013-09-08 04:55:00,69.8,64.1,29.89,NE,41,0.0,0.0,82,0.00,,,0.00,Wunderground v.1.15,2013-09-08 08:55:00,
2013-09-08 05:00:00,69.8,64.1,29.89,NE,42,0.0,0.0,82,0.00,,,0.00,Wunderground v.1.15,2013-09-08 09:00:00,
2013-09-08 05:05:00,69.8,64.1,29.89,NE,42,0.0,0.0,82,0.00,,,0.00,Wunderground v.1.15,2013-09-08 09:05:00,
2013-09-08 05:10:00,69.8,64.1,29.89,NE,42,0.0,0.0,82,0.00,,,0.00,Wunderground v.1.15,2013-09-08 09:10:00,
2013-09-08 05:15:00,69.8,64.1,29.89,NE,42,0.0,0.0,82,0.00,,,0.00,Wunderground v.1.15,2013-09-08 09:15:00,
2013-09-08 05:20:00,69.8,64.1,29.89,NE,42,0.0,0.0,82,0.00,,,0.00,Wunderground v.1.15,2013-09-08 09:20:00,
2013-09-08 05:25:00,69.8,64.1,29.89,NE,41,0.0,0.0,82,0.00,,,0.00,Wunderground v.1.15,2013-09-08 09:25:00,
2013-09-08 05:30:00,69.8,64.1,29.89,NE,42,0.0,0.0,82,0.00,,,0.00,Wunderground v.1.15,2013-09-08 09:30:00,
2013-09-08 05:35:00,69.8,64.1,29.89,NE,42,0.0,0.0,82,0.00,,,0.00,Wunderground v.1.15,2013-09-08 09:35:00,
2013-09-08 05:40:00,69.8,64.1,29.89,NE,42,0.0,0.0,82,0.00,,,0.00,Wunderground v.1.15,2013-09-08 09:40:00,
2013-09-08 05:45:00,69.8,64.1,29.89,NE,42,0.0,0.0,82,0.00,,,0.00,Wunderground v.1.15,2013-09-08 09:45:00,
2013-09-08 05:55:00,69.8,64.1,29.89,NE,42,0.0,0.0,82,0.00,,,0.00,Wunderground v.1.15,2013-09-08 09:55:00,
2013-09-08 06:00:00,69.8,64.1,29.89,NE,42,0.0,0.0,82,0.00,,,0.00,Wunderground v.1.15,2013-09-08 10:00:00,
2013-09-08 06:05:00,69.8,64.1,29.89,NE,41,0.0,0.0,82,0.00,,,0.00,Wunderground v.1.15,2013-09-08 10:05:00,
2013-09-08 06:15:00,69.8,64.1,29.90,NE,42,0.0,0.0,82,0.00,,,0.00,Wunderground v.1.15,2013-09-08 10:15:00,
2013-09-08 06:25:00,69.8,64.1,29.90,NE,41,0.0,0.0,82,0.00,,,0.00,Wunderground v.1.15,2013-09-08 10:25:00,
2013-09-08 06:35:00,69.7,64.0,29.90,NE,42,0.0,0.0,82,0.00,,,0.00,Wunderground v.1.15,2013-09-08 10:35:00,
2013-09-08 06:40:00,69.7,64.0,29.90,NE,42,0.0,0.0,82,0.00,,,0.00,Wunderground v.1.15,2013-09-08 10:40:00,
2013-09-08 06:45:00,69.7,64.0,29.90,NE,42,0.0,0.0,82,0.00,,,0.00,Wunderground v.1.15,2013-09-08 10:45:00,
2013-09-08 06:50:00,69.7,64.0,29.90,NE,42,0.0,0.0,82,0.00,,,0.00,Wunderground v.1.15,2013-09-08 10:50:00,
2013-09-08 06:55:00,69.7,64.0,29.90,NE,42,0.0,0.0,82,0.00,,,0.00,Wunderground v.1.15,2013-09-08 10:55:00,
2013-09-08 07:00:00,69.7,64.0,29.90,NE,41,0.0,0.0,82,0.00,,,0.00,Wunderground v.1.15,2013-09-08 11:00:00,
2013-09-08 07:05:00,69.7,64.0,29.90,NE,41,0.0,0.0,82,0.00,,,0.00,Wunderground v.1.15,2013-09-08 11:05:00,
2013-09-08 07:15:00,69.7,64.0,29.90,NE,41,0.0,0.0,82,0.00,,,0.00,Wunderground v.1.15,2013-09-08 11:15:00,
2013-09-08 07:20:00,69.7,64.0,29.90,NE,41,0.0,0.0,82,0.00,,,0.00,Wunderground v.1.15,2013-09-08 11:20:00,
2013-09-08 07:25:00,69.8,64.1,29.90,NE,42,0.0,0.0,82,0.00,,,0.00,Wunderground v.1.15,2013-09-08 11:25:00,
2013-09-08 07:35:00,70.3,64.5,29.91,NE,41,0.0,0.0,82,0.00,,,0.00,Wunderground v.1.15,2013-09-08 11:35:00,
2013-09-08 07:40:00,70.8,65.0,29.91,NE,42,0.0,0.0,82,0.00,,,0.00,Wunderground v.1.15,2013-09-08 11:40:00,
2013-09-08 07:45:00,71.1,65.3,29.91,NE,41,0.0,0.0,82,0.00,,,0.00,Wunderground v.1.15,2013-09-08 11:45:00,
2013-09-08 07:50:00,71.4,65.6,29.91,NE,42,0.0,0.0,82,0.00,,,0.00,Wunderground v.1.15,2013-09-08 11:50:00,
2013-09-08 07:55:00,71.7,65.9,29.91,NE,42,0.0,0.0,82,0.00,,,0.00,Wunderground v.1.15,2013-09-08 11:55:00,
2013-09-08 08:00:00,72.2,66.4,29.91,NE,42,0.0,0.0,82,0.00,,,0.00,Wunderground v.1.15,2013-09-08 12:00:00,
2013-09-08 08:05:00,73.0,66.8,29.91,NE,41,0.0,0.0,81,0.00,,,0.00,Wunderground v.1.15,2013-09-08 12:05:00,
2013-09-08 08:15:00,74.2,68.0,29.91,NE,42,0.0,0.0,81,0.00,,,0.00,Wunderground v.1.15,2013-09-08 12:15:00,
2013-09-08 08:20:00,74.4,68.2,29.92,NE,41,0.0,0.0,81,0.00,,,0.00,Wunderground v.1.15,2013-09-08 12:20:00,
2013-09-08 08:25:00,74.7,68.5,29.92,NE,42,0.0,0.0,81,0.00,,,0.00,Wunderground v.1.15,2013-09-08 12:25:00,
2013-09-08 08:30:00,74.9,68.7,29.92,NE,41,0.0,0.0,81,0.00,,,0.00,Wunderground v.1.15,2013-09-08 12:30:00,
2013-09-08 08:35:00,75.3,69.1,29.92,NE,42,0.0,0.0,81,0.00,,,0.00,Wunderground v.1.15,2013-09-08 12:35:00,
2013-09-08 08:40:00,75.8,69.2,29.92,NE,41,0.0,0.0,80,0.00,,,0.00,Wunderground v.1.15,2013-09-08 12:40:00,
2013-09-08 08:50:00,76.4,70.1,29.92,NE,42,0.0,0.0,81,0.00,,,0.00,Wunderground v.1.15,2013-09-08 12:50:00,
2013-09-08 08:55:00,76.6,70.3,29.92,NE,42,0.0,0.0,81,0.00,,,0.00,Wunderground v.1.15,2013-09-08 12:55:00,
2013-09-08 09:00:00,77.0,70.4,29.92,NE,42,0.0,0.0,80,0.00,,,0.00,Wunderground v.1.15,2013-09-08 13:00:00,
2013-09-08 09:05:00,77.4,70.7,29.92,NE,37,0.0,2.0,80,0.00,,,0.00,Wunderground v.1.15,2013-09-08 13:05:00,
2013-09-08 09:10:00,77.5,71.2,29.92,NE,38,0.0,0.0,81,0.00,,,0.00,Wunderground v.1.15,2013-09-08 13:10:00,
2013-09-08 09:15:00,77.5,71.2,29.92,NE,34,0.0,2.0,81,0.00,,,0.00,Wunderground v.1.15,2013-09-08 13:15:00,
2013-09-08 09:20:00,77.7,71.4,29.92,NE,35,1.0,3.0,81,0.00,,,0.00,Wunderground v.1.15,2013-09-08 13:20:00,
2013-09-08 09:25:00,77.7,71.4,29.92,NNE,33,3.0,3.0,81,0.00,,,0.00,Wunderground v.1.15,2013-09-08 13:25:00,
2013-09-08 09:30:00,77.9,71.6,29.92,NNE,15,4.0,4.0,81,0.00,,,0.00,Wunderground v.1.15,2013-09-08 13:30:00,
2013-09-08 09:35:00,78.3,72.0,29.93,North,11,4.0,4.0,81,0.00,,,0.00,Wunderground v.1.15,2013-09-08 13:35:00,
2013-09-08 09:40:00,78.9,72.6,29.93,North,9,3.0,6.0,81,0.00,,,0.00,Wunderground v.1.15,2013-09-08 13:40:00,
2013-09-08 09:45:00,79.2,72.9,29.93,North,9,3.0,6.0,81,0.00,,,0.00,Wunderground v.1.15,2013-09-08 13:45:00,
2013-09-08 09:50:00,79.6,73.3,29.93,North,9,4.0,6.0,81,0.00,,,0.00,Wunderground v.1.15,2013-09-08 13:50:00,
2013-09-08 09:55:00,79.5,73.5,29.93,North,9,4.0,6.0,82,0.00,,,0.00,Wunderground v.1.15,2013-09-08 13:55:00,
2013-09-08 10:00:00,79.9,73.9,29.93,North,5,4.0,6.0,82,0.00,,,0.00,Wunderground v.1.15,2013-09-08 14:00:00,
2013-09-08 10:05:00,80.1,74.1,29.93,North,360,4.0,6.0,82,0.00,,,0.00,Wunderground v.1.15,2013-09-08 14:05:00,
2013-09-08 10:10:00,80.4,74.4,29.93,North,9,4.0,4.0,82,0.00,,,0.00,Wunderground v.1.15,2013-09-08 14:10:00,
2013-09-08 10:15:00,80.6,74.6,29.93,North,5,4.0,5.0,82,0.00,,,0.00,Wunderground v.1.15,2013-09-08 14:15:00,
2013-09-08 10:20:00,81.0,75.0,29.93,North,10,4.0,5.0,82,0.00,,,0.00,Wunderground v.1.15,2013-09-08 14:20:00,
2013-09-08 10:25:00,81.2,75.2,29.93,North,5,4.0,5.0,82,0.00,,,0.00,Wunderground v.1.15,2013-09-08 14:25:00,
2013-09-08 10:35:00,81.4,75.4,29.93,North,5,4.0,4.0,82,0.00,,,0.00,Wunderground v.1.15,2013-09-08 14:35:00,
2013-09-08 10:45:00,82.0,76.0,29.93,North,360,3.0,7.0,82,0.00,,,0.00,Wunderground v.1.15,2013-09-08 14:45:00,
2013-09-08 10:50:00,81.8,75.4,29.93,North,360,3.0,3.0,81,0.00,,,0.00,Wunderground v.1.15,2013-09-08 14:50:00,
2013-09-08 10:55:00,82.1,75.7,29.93,North,360,3.0,3.0,81,0.00,,,0.00,Wunderground v.1.15,2013-09-08 14:55:00,
2013-09-08 11:00:00,82.4,76.0,29.93,North,360,4.0,5.0,81,0.00,,,0.00,Wunderground v.1.15,2013-09-08 15:00:00,
2013-09-08 11:05:00,82.6,76.2,29.93,North,10,5.0,5.0,81,0.00,,,0.00,Wunderground v.1.15,2013-09-08 15:05:00,
2013-09-08 11:10:00,83.1,76.3,29.93,NNE,14,4.0,5.0,80,0.00,,,0.00,Wunderground v.1.15,2013-09-08 15:10:00,
2013-09-08 11:15:00,83.4,76.6,29.93,North,9,3.0,6.0,80,0.00,,,0.00,Wunderground v.1.15,2013-09-08 15:15:00,
2013-09-08 11:25:00,83.2,76.0,29.93,North,360,4.0,11.0,79,0.00,,,0.00,Wunderground v.1.15,2013-09-08 15:25:00,
2013-09-08 11:30:00,83.8,76.6,29.93,North,9,3.0,4.0,79,0.00,,,0.00,Wunderground v.1.15,2013-09-08 15:30:00,
2013-09-08 11:35:00,84.1,76.9,29.92,North,360,3.0,5.0,79,0.00,,,0.00,Wunderground v.1.15,2013-09-08 15:35:00,
2013-09-08 11:40:00,84.4,76.8,29.92,North,5,3.0,4.0,78,0.00,,,0.00,Wunderground v.1.15,2013-09-08 15:40:00,
2013-09-08 11:45:00,84.4,76.8,29.92,North,9,3.0,4.0,78,0.00,,,0.00,Wunderground v.1.15,2013-09-08 15:45:00,
2013-09-08 11:50:00,84.7,77.5,29.92,North,9,3.0,3.0,79,0.00,,,0.00,Wunderground v.1.15,2013-09-08 15:50:00,
2013-09-08 11:55:00,85.1,77.5,29.92,North,9,2.0,3.0,78,0.00,,,0.00,Wunderground v.1.15,2013-09-08 15:55:00,
2013-09-08 12:00:00,85.5,77.9,29.92,North,9,1.0,1.0,78,0.00,,,0.00,Wunderground v.1.15,2013-09-08 16:00:00,
2013-09-08 12:05:00,85.6,77.6,29.92,NNE,18,2.0,3.0,77,0.00,,,0.00,Wunderground v.1.15,2013-09-08 16:05:00,
2013-09-08 12:15:00,84.9,76.9,29.92,NNE,22,3.0,5.0,77,0.00,,,0.00,Wunderground v.1.15,2013-09-08 16:15:00,
2013-09-08 12:20:00,85.0,76.6,29.92,NNE,22,3.0,4.0,76,0.00,,,0.00,Wunderground v.1.15,2013-09-08 16:20:00,
2013-09-08 12:25:00,85.2,77.6,29.91,NNE,17,1.0,4.0,78,0.00,,,0.00,Wunderground v.1.15,2013-09-08 16:25:00,
2013-09-08 12:30:00,86.4,78.7,29.91,NNE,16,1.0,1.0,78,0.00,,,0.00,Wunderground v.1.15,2013-09-08 16:30:00,
2013-09-08 12:35:00,86.1,77.6,29.91,NNE,14,1.0,1.0,76,0.00,,,0.00,Wunderground v.1.15,2013-09-08 16:35:00,
2013-09-08 12:40:00,85.6,77.2,29.91,NNE,14,1.0,1.0,76,0.00,,,0.00,Wunderground v.1.15,2013-09-08 16:40:00,
2013-09-08 12:45:00,85.6,77.2,29.91,NNE,15,1.0,4.0,76,0.00,,,0.00,Wunderground v.1.15,2013-09-08 16:45:00,
2013-09-08 12:50:00,86.1,77.2,29.91,NNE,23,3.0,3.0,75,0.00,,,0.00,Wunderground v.1.15,2013-09-08 16:50:00,
2013-09-08 12:55:00,86.4,77.1,29.91,NNE,23,2.0,4.0,74,0.00,,,0.00,Wunderground v.1.15,2013-09-08 16:55:00,
2013-09-08 13:00:00,86.0,76.3,29.91,NNE,15,3.0,4.0,73,0.00,,,0.00,Wunderground v.1.15,2013-09-08 17:00:00,
2013-09-08 13:05:00,85.2,76.0,29.90,NNE,13,4.0,4.0,74,0.00,,,0.00,Wunderground v.1.15,2013-09-08 17:05:00,
2013-09-08 13:15:00,85.5,76.7,29.91,NNE,13,1.0,2.0,75,0.00,,,0.00,Wunderground v.1.15,2013-09-08 17:15:00,
2013-09-08 13:20:00,85.7,76.9,29.90,NNE,15,2.0,2.0,75,0.00,,,0.00,Wunderground v.1.15,2013-09-08 17:20:00,
2013-09-08 13:25:00,86.3,77.0,29.90,NNE,14,1.0,2.0,74,0.00,,,0.00,Wunderground v.1.15,2013-09-08 17:25:00,
2013-09-08 13:30:00,87.1,77.4,29.90,NNE,15,0.0,0.0,73,0.00,,,0.00,Wunderground v.1.15,2013-09-08 17:30:00,
2013-09-08 13:35:00,87.1,76.5,29.90,NNE,14,1.0,4.0,71,0.00,,,0.00,Wunderground v.1.15,2013-09-08 17:35:00,
2013-09-08 13:40:00,86.1,76.8,29.90,NNE,14,3.0,3.0,74,0.00,,,0.00,Wunderground v.1.15,2013-09-08 17:40:00,
2013-09-08 13:45:00,86.0,77.5,29.90,NNE,14,1.0,3.0,76,0.00,,,0.00,Wunderground v.1.15,2013-09-08 17:45:00,
2013-09-08 13:50:00,86.8,77.5,29.89,NNE,14,0.0,0.0,74,0.00,,,0.00,Wunderground v.1.15,2013-09-08 17:50:00,
2013-09-08 14:00:00,87.3,76.7,29.89,NNE,14,1.0,1.0,71,0.00,,,0.00,Wunderground v.1.15,2013-09-08 18:00:00,
2013-09-08 14:05:00,87.1,76.5,29.89,NNE,14,2.0,2.0,71,0.00,,,0.00,Wunderground v.1.15,2013-09-08 18:05:00,
2013-09-08 14:10:00,87.0,76.0,29.89,North,5,3.0,3.0,70,0.00,,,0.00,Wunderground v.1.15,2013-09-08 18:10:00,
2013-09-08 14:20:00,86.9,77.2,29.88,North,5,1.0,1.0,73,0.00,,,0.00,Wunderground v.1.15,2013-09-08 18:20:00,
2013-09-08 14:25:00,87.4,76.4,29.88,North,5,1.0,1.0,70,0.00,,,0.00,Wunderground v.1.15,2013-09-08 18:25:00,
2013-09-08 14:30:00,88.2,77.6,29.87,North,355,1.0,1.0,71,0.00,,,0.00,Wunderground v.1.15,2013-09-08 18:30:00,
2013-09-08 14:35:00,89.0,78.4,29.87,North,355,0.0,1.0,71,0.00,,,0.00,Wunderground v.1.15,2013-09-08 18:35:00,
2013-09-08 14:40:00,88.9,77.0,29.87,North,360,2.0,5.0,68,0.00,,,0.00,Wunderground v.1.15,2013-09-08 18:40:00,
2013-09-08 14:45:00,88.5,75.7,29.86,North,360,3.0,5.0,66,0.00,,,0.00,Wunderground v.1.15,2013-09-08 18:45:00,
2013-09-08 14:50:00,88.7,76.3,29.86,North,360,1.0,1.0,67,0.00,,,0.00,Wunderground v.1.15,2013-09-08 18:50:00,
2013-09-08 15:00:00,88.6,76.2,29.86,North,360,4.0,7.0,67,0.00,,,0.00,Wunderground v.1.15,2013-09-08 19:00:00,
2013-09-08 15:05:00,88.2,75.4,29.86,North,360,6.0,7.0,66,0.00,,,0.00,Wunderground v.1.15,2013-09-08 19:05:00,
2013-09-08 15:10:00,88.0,74.8,29.86,North,5,5.0,5.0,65,0.00,,,0.00,Wunderground v.1.15,2013-09-08 19:10:00,
2013-09-08 15:15:00,87.9,74.7,29.85,North,5,3.0,5.0,65,0.00,,,0.00,Wunderground v.1.15,2013-09-08 19:15:00,
2013-09-08 15:20:00,88.1,74.8,29.85,North,5,2.0,2.0,65,0.00,,,0.00,Wunderground v.1.15,2013-09-08 19:20:00,
2013-09-08 15:25:00,88.4,75.1,29.85,North,360,2.0,6.0,65,0.00,,,0.00,Wunderground v.1.15,2013-09-08 19:25:00,
2013-09-08 15:30:00,88.5,75.7,29.85,North,5,4.0,4.0,66,0.00,,,0.00,Wunderground v.1.15,2013-09-08 19:30:00,
2013-09-08 15:40:00,87.4,74.6,29.85,North,5,3.0,3.0,66,0.00,,,0.00,Wunderground v.1.15,2013-09-08 19:40:00,
2013-09-08 15:45:00,87.7,74.9,29.85,North,5,1.0,3.0,66,0.00,,,0.00,Wunderground v.1.15,2013-09-08 19:45:00,
2013-09-08 15:50:00,88.1,75.3,29.85,North,5,1.0,2.0,66,0.00,,,0.00,Wunderground v.1.15,2013-09-08 19:50:00,
2013-09-08 15:55:00,88.1,74.4,29.84,North,5,3.0,3.0,64,0.00,,,0.00,Wunderground v.1.15,2013-09-08 19:55:00,
2013-09-08 16:00:00,88.4,75.1,29.84,North,360,2.0,4.0,65,0.00,,,0.00,Wunderground v.1.15,2013-09-08 20:00:00,
2013-09-08 16:05:00,88.7,74.5,29.84,North,5,1.0,4.0,63,0.00,,,0.00,Wunderground v.1.15,2013-09-08 20:05:00,
2013-09-08 16:10:00,88.9,75.6,29.84,North,5,1.0,3.0,65,0.00,,,0.00,Wunderground v.1.15,2013-09-08 20:10:00,
2013-09-08 16:15:00,89.3,76.4,29.84,North,5,2.0,3.0,66,0.00,,,0.00,Wunderground v.1.15,2013-09-08 20:15:00,
2013-09-08 16:20:00,89.4,75.1,29.84,North,5,3.0,3.0,63,0.00,,,0.00,Wunderground v.1.15,2013-09-08 20:20:00,
2013-09-08 16:30:00,89.4,76.1,29.84,North,5,1.0,1.0,65,0.00,,,0.00,Wunderground v.1.15,2013-09-08 20:30:00,
2013-09-08 16:35:00,89.7,76.8,29.84,North,360,0.0,1.0,66,0.00,,,0.00,Wunderground v.1.15,2013-09-08 20:35:00,
2013-09-08 16:40:00,90.0,77.1,29.84,North,360,0.0,0.0,66,0.00,,,0.00,Wunderground v.1.15,2013-09-08 20:40:00,
2013-09-08 16:45:00,90.2,76.8,29.84,North,5,0.0,0.0,65,0.00,,,0.00,Wunderground v.1.15,2013-09-08 20:45:00,
2013-09-08 16:50:00,90.4,77.5,29.84,North,360,0.0,0.0,66,0.00,,,0.00,Wunderground v.1.15,2013-09-08 20:50:00,
2013-09-08 17:00:00,89.8,75.5,29.84,NNE,18,3.0,10.0,63,0.00,,,0.00,Wunderground v.1.15,2013-09-08 21:00:00,
2013-09-08 17:05:00,87.9,74.7,29.84,North,11,7.0,10.0,65,0.00,,,0.00,Wunderground v.1.15,2013-09-08 21:05:00,
2013-09-08 17:15:00,86.7,73.5,29.84,North,5,3.0,7.0,65,0.00,,,0.00,Wunderground v.1.15,2013-09-08 21:15:00,
2013-09-08 17:20:00,87.0,73.8,29.84,North,360,2.0,4.0,65,0.00,,,0.00,Wunderground v.1.15,2013-09-08 21:20:00,
2013-09-08 17:25:00,87.3,74.1,29.83,North,5,3.0,4.0,65,0.00,,,0.00,Wunderground v.1.15,2013-09-08 21:25:00,
2013-09-08 17:30:00,87.4,75.1,29.84,North,9,4.0,6.0,67,0.00,,,0.00,Wunderground v.1.15,2013-09-08 21:30:00,
2013-09-08 17:35:00,87.1,76.5,29.84,North,5,6.0,6.0,71,0.00,,,0.00,Wunderground v.1.15,2013-09-08 21:35:00,
2013-09-08 17:40:00,86.0,75.5,29.85,NNE,13,8.0,11.0,71,0.00,,,0.00,Wunderground v.1.15,2013-09-08 21:40:00,
2013-09-08 17:45:00,84.7,74.7,29.84,North,360,8.0,11.0,72,0.00,,,0.00,Wunderground v.1.15,2013-09-08 21:45:00,
2013-09-08 17:50:00,83.6,74.0,29.84,NNW,347,6.0,6.0,73,0.00,,,0.00,Wunderground v.1.15,2013-09-08 21:50:00,
2013-09-08 17:55:00,82.9,73.8,29.84,North,360,4.0,6.0,74,0.00,,,0.00,Wunderground v.1.15,2013-09-08 21:55:00,
2013-09-08 18:00:00,82.5,73.8,29.84,North,5,3.0,3.0,75,0.00,,,0.00,Wunderground v.1.15,2013-09-08 22:00:00,
2013-09-08 18:05:00,82.1,74.2,29.84,North,355,2.0,4.0,77,0.00,,,0.00,Wunderground v.1.15,2013-09-08 22:05:00,
2013-09-08 18:10:00,81.9,74.4,29.84,North,360,1.0,1.0,78,0.00,,,0.00,Wunderground v.1.15,2013-09-08 22:10:00,
2013-09-08 18:15:00,81.8,74.3,29.85,North,360,2.0,2.0,78,0.00,,,0.00,Wunderground v.1.15,2013-09-08 22:15:00,
2013-09-08 18:20:00,81.9,74.4,29.84,North,355,3.0,3.0,78,0.00,,,0.00,Wunderground v.1.15,2013-09-08 22:20:00,
2013-09-08 18:25:00,82.0,74.5,29.85,North,360,2.0,6.0,78,0.00,,,0.00,Wunderground v.1.15,2013-09-08 22:25:00,
2013-09-08 18:30:00,82.1,74.6,29.85,North,355,2.0,5.0,78,0.00,,,0.00,Wunderground v.1.15,2013-09-08 22:30:00,
2013-09-08 18:35:00,82.2,74.7,29.85,North,355,3.0,5.0,78,0.00,,,0.00,Wunderground v.1.15,2013-09-08 22:35:00,
2013-09-08 18:40:00,82.3,74.7,29.85,NNW,348,3.0,4.0,78,0.00,,,0.00,Wunderground v.1.15,2013-09-08 22:40:00,
2013-09-08 18:45:00,82.3,74.7,29.85,North,355,3.0,4.0,78,0.00,,,0.00,Wunderground v.1.15,2013-09-08 22:45:00,
2013-09-08 18:50:00,82.4,74.8,29.85,North,355,2.0,2.0,78,0.00,,,0.00,Wunderground v.1.15,2013-09-08 22:50:00,
2013-09-08 18:55:00,82.3,75.1,29.85,North,355,2.0,6.0,79,0.00,,,0.00,Wunderground v.1.15,2013-09-08 22:55:00,
2013-09-08 19:00:00,82.3,75.1,29.85,North,355,2.0,3.0,79,0.00,,,0.00,Wunderground v.1.15,2013-09-08 23:00:00,
2013-09-08 19:05:00,82.1,74.9,29.85,North,355,2.0,3.0,79,0.00,,,0.00,Wunderground v.1.15,2013-09-08 23:05:00,
2013-09-08 19:10:00,82.1,75.3,29.85,North,355,2.0,2.0,80,0.00,,,0.00,Wunderground v.1.15,2013-09-08 23:10:00,
2013-09-08 19:15:00,82.0,75.2,29.85,North,355,2.0,2.0,80,0.00,,,0.00,Wunderground v.1.15,2013-09-08 23:15:00,
2013-09-08 19:20:00,81.8,75.0,29.86,North,355,1.0,1.0,80,0.00,,,0.00,Wunderground v.1.15,2013-09-08 23:20:00,
2013-09-08 19:25:00,81.7,74.9,29.86,North,5,0.0,1.0,80,0.00,,,0.00,Wunderground v.1.15,2013-09-08 23:25:00,
2013-09-08 19:30:00,81.5,74.7,29.86,NW,322,0.0,1.0,80,0.00,,,0.00,Wunderground v.1.15,2013-09-08 23:30:00,
2013-09-08 19:35:00,81.3,74.5,29.86,NNE,22,2.0,2.0,80,0.00,,,0.00,Wunderground v.1.15,2013-09-08 23:35:00,
2013-09-08 19:40:00,81.2,74.1,29.85,NE,37,3.0,3.0,79,0.00,,,0.00,Wunderground v.1.15,2013-09-08 23:40:00,
2013-09-08 19:45:00,81.0,73.9,29.86,NE,37,1.0,3.0,79,0.00,,,0.00,Wunderground v.1.15,2013-09-08 23:45:00,
2013-09-08 19:55:00,80.8,73.7,29.87,NE,37,1.0,2.0,79,0.00,,,0.00,Wunderground v.1.15,2013-09-08 23:55:00,
2013-09-08 20:00:00,80.7,73.6,29.87,NE,37,1.0,1.0,79,0.00,,,0.00,Wunderground v.1.15,2013-09-09 00:00:00,
2013-09-08 20:05:00,80.7,73.6,29.88,NE,37,1.0,1.0,79,0.00,,,0.00,Wunderground v.1.15,2013-09-09 00:05:00,
2013-09-08 20:10:00,80.6,73.9,29.88,NE,37,1.0,2.0,80,0.00,,,0.00,Wunderground v.1.15,2013-09-09 00:10:00,
2013-09-08 20:20:00,80.2,73.5,29.88,NE,38,2.0,2.0,80,0.00,,,0.00,Wunderground v.1.15,2013-09-09 00:20:00,
2013-09-08 20:25:00,80.0,73.3,29.88,NE,38,2.0,2.0,80,0.00,,,0.00,Wunderground v.1.15,2013-09-09 00:25:00,
2013-09-08 20:30:00,79.8,73.1,29.89,NE,37,2.0,2.0,80,0.00,,,0.00,Wunderground v.1.15,2013-09-09 00:30:00,
2013-09-08 20:35:00,79.7,73.0,29.89,NE,37,1.0,2.0,80,0.00,,,0.00,Wunderground v.1.15,2013-09-09 00:35:00,
2013-09-08 20:40:00,79.6,72.9,29.90,NE,38,0.0,0.0,80,0.00,,,0.00,Wunderground v.1.15,2013-09-09 00:40:00,
2013-09-08 20:45:00,79.4,73.1,29.90,NE,37,0.0,0.0,81,0.00,,,0.00,Wunderground v.1.15,2013-09-09 00:45:00,
2013-09-08 20:50:00,79.3,73.0,29.90,NE,38,0.0,0.0,81,0.00,,,0.00,Wunderground v.1.15,2013-09-09 00:50:00,
2013-09-08 20:55:00,79.2,72.9,29.90,NE,38,1.0,1.0,81,0.00,,,0.00,Wunderground v.1.15,2013-09-09 00:55:00,
2013-09-08 21:00:00,79.1,72.8,29.91,NE,38,0.0,0.0,81,0.00,,,0.00,Wunderground v.1.15,2013-09-09 01:00:00,
2013-09-08 21:05:00,79.1,72.8,29.91,NE,38,0.0,0.0,81,0.00,,,0.00,Wunderground v.1.15,2013-09-09 01:05:00,
2013-09-08 21:10:00,79.0,72.7,29.91,NE,38,0.0,0.0,81,0.00,,,0.00,Wunderground v.1.15,2013-09-09 01:10:00,
2013-09-08 21:15:00,78.9,72.6,29.91,NE,38,0.0,0.0,81,0.00,,,0.00,Wunderground v.1.15,2013-09-09 01:15:00,
2013-09-08 21:20:00,78.7,72.4,29.91,NE,38,0.0,0.0,81,0.00,,,0.00,Wunderground v.1.15,2013-09-09 01:20:00,
2013-09-08 21:25:00,78.7,72.4,29.92,NE,38,0.0,0.0,81,0.00,,,0.00,Wunderground v.1.15,2013-09-09 01:25:00,
2013-09-08 21:30:00,78.4,72.1,29.92,NE,37,0.0,0.0,81,0.00,,,0.00,Wunderground v.1.15,2013-09-09 01:30:00,
2013-09-08 21:35:00,78.2,71.9,29.92,NE,38,0.0,0.0,81,0.00,,,0.00,Wunderground v.1.15,2013-09-09 01:35:00,
2013-09-08 21:40:00,78.0,71.7,29.92,NE,38,0.0,0.0,81,0.00,,,0.00,Wunderground v.1.15,2013-09-09 01:40:00,
2013-09-08 21:45:00,77.8,71.9,29.93,NE,37,0.0,0.0,82,0.00,,,0.00,Wunderground v.1.15,2013-09-09 01:45:00,
2013-09-08 21:50:00,77.6,71.7,29.93,NE,38,0.0,0.0,82,0.00,,,0.00,Wunderground v.1.15,2013-09-09 01:50:00,
2013-09-08 21:55:00,77.5,71.6,29.93,NE,37,0.0,0.0,82,0.00,,,0.00,Wunderground v.1.15,2013-09-09 01:55:00,
2013-09-08 22:00:00,77.3,71.4,29.94,NE,38,0.0,0.0,82,0.00,,,0.00,Wunderground v.1.15,2013-09-09 02:00:00,
2013-09-08 22:05:00,77.1,71.2,29.94,NE,38,0.0,0.0,82,0.00,,,0.00,Wunderground v.1.15,2013-09-09 02:05:00,
2013-09-08 22:10:00,76.9,71.0,29.94,NE,37,0.0,0.0,82,0.00,,,0.00,Wunderground v.1.15,2013-09-09 02:10:00,
2013-09-08 22:15:00,76.7,70.8,29.94,NE,38,0.0,0.0,82,0.00,,,0.00,Wunderground v.1.15,2013-09-09 02:15:00,
2013-09-08 22:20:00,76.5,70.6,29.94,NE,38,0.0,0.0,82,0.00,,,0.00,Wunderground v.1.15,2013-09-09 02:20:00,
2013-09-08 22:25:00,76.3,70.4,29.94,NE,38,0.0,0.0,82,0.00,,,0.00,Wunderground v.1.15,2013-09-09 02:25:00,
2013-09-08 22:30:00,76.3,70.4,29.94,NE,37,0.0,0.0,82,0.00,,,0.00,Wunderground v.1.15,2013-09-09 02:30:00,
2013-09-08 22:35:00,76.2,70.3,29.95,NE,38,0.0,0.0,82,0.00,,,0.00,Wunderground v.1.15,2013-09-09 02:35:00,
2013-09-08 22:40:00,76.1,70.2,29.95,NE,37,0.0,0.0,82,0.00,,,0.00,Wunderground v.1.15,2013-09-09 02:40:00,
2013-09-08 22:45:00,76.0,70.1,29.94,NE,38,0.0,0.0,82,0.00,,,0.00,Wunderground v.1.15,2013-09-09 02:45:00,
2013-09-08 22:50:00,75.9,70.0,29.95,NE,38,0.0,0.0,82,0.00,,,0.00,Wunderground v.1.15,2013-09-09 02:50:00,
2013-09-08 22:55:00,76.0,70.1,29.95,NE,37,0.0,0.0,82,0.00,,,0.00,Wunderground v.1.15,2013-09-09 02:55:00,
2013-09-08 23:00:00,76.0,70.1,29.95,NE,37,0.0,0.0,82,0.00,,,0.00,Wunderground v.1.15,2013-09-09 03:00:00,
2013-09-08 23:05:00,76.0,70.1,29.95,NE,38,0.0,0.0,82,0.00,,,0.00,Wunderground v.1.15,2013-09-09 03:05:00,
2013-09-08 23:10:00,75.9,70.0,29.95,NE,38,0.0,0.0,82,0.00,,,0.00,Wunderground v.1.15,2013-09-09 03:10:00,
2013-09-08 23:15:00,75.8,69.9,29.95,NE,38,0.0,0.0,82,0.00,,,0.00,Wunderground v.1.15,2013-09-09 03:15:00,
2013-09-08 23:20:00,75.7,70.2,29.95,NE,38,0.0,0.0,83,0.00,,,0.00,Wunderground v.1.15,2013-09-09 03:20:00,
2013-09-08 23:25:00,75.5,70.0,29.95,NE,37,0.0,0.0,83,0.00,,,0.00,Wunderground v.1.15,2013-09-09 03:25:00,
2013-09-08 23:30:00,75.2,69.3,29.94,NE,38,0.0,0.0,82,0.00,,,0.00,Wunderground v.1.15,2013-09-09 03:30:00,
2013-09-08 23:35:00,75.1,69.6,29.94,NE,37,0.0,0.0,83,0.00,,,0.00,Wunderground v.1.15,2013-09-09 03:35:00,
2013-09-08 23:40:00,74.8,69.3,29.94,NE,38,0.0,0.0,83,0.00,,,0.00,Wunderground v.1.15,2013-09-09 03:40:00,
2013-09-08 23:45:00,74.7,69.2,29.94,NE,38,0.0,0.0,83,0.00,,,0.00,Wunderground v.1.15,2013-09-09 03:45:00,
2013-09-08 23:50:00,74.5,69.0,29.94,NE,38,0.0,0.0,83,0.00,,,0.00,Wunderground v.1.15,2013-09-09 03:50:00,
2013-09-08 23:55:00,74.4,68.9,29.94,NE,38,0.0,0.0,83,0.00,,,0.00,Wunderground v.1.15,2013-09-09 03:55:00,